Weather History for Swansboro, NC

Change the Weather History Date:

Wednesday, December 5, 2012

  Actual Average (KNKT) Record (KNKT)
Temperature  
Mean Temperature 63 °F -  
Max Temperature 73 °F 58 °F 75 °F (1998)
Min Temperature 53 °F 38 °F 27 °F (2000)
Degree Days  
Heating Degree Days 2    
Growing Degree Days 13 (Base 50)    
Moisture  
Dew Point 52 °F    
Average Humidity 73    
Maximum Humidity 100    
Minimum Humidity 48    
Precipitation  
Precipitation 0.01 in - - ()
Sea Level Pressure  
Sea Level Pressure 30.18 in    
Wind  
Wind Speed 5 mph (NW)    
Max Wind Speed 10 mph    
Max Gust Speed 18 mph    
Visibility 9 miles    
Events      
Averages and records for this station are not official NWS values.
T = Trace of Precipitation, MM = Missing Value Source: NWS Daily Summary

Daily Weather History Graph

Daily Weather History Graph

Search for Another Location

Airport:

Trip Planner

Search our weather history database for the weather conditions in past years. The results will help you decide how hot, cold, wet, or windy it might be!

Date:

Astronomy

Dec. 05, 2012 Rise Set
Actual Time 7:00 AM EST 4:57 PM EST
Civil Twilight 6:33 AM EST 5:24 PM EST
Nautical Twilight 6:01 AM EST 5:56 PM EST
Astronomical Twilight 5:31 AM EST 6:26 PM EST
Moon 11:32 PM EST (12/5) 11:34 AM EST (12/5)
Length of Visible Light 10h 51m
Length of Day
9h 56m
Waning Gibbous, 60% of the Moon is Illuminated
Dec 5
Waning Gibbous
Dec 6
Last Quarter
Dec 13
New
Dec 20
First Quarter
Dec 28
Full

Hourly Weather History & Observations

Time (EST) Temp. Dew Point Humidity Pressure Visibility Wind Dir Wind Speed Gust Speed Precip Events Conditions
12:57 AM 60.1 °F 57.9 °F 93% 30.23 in 10.0 mi West 5.8 mph - N/A   Overcast
2:57 AM 55.0 °F 55.0 °F 100% 30.21 in 2.5 mi Calm Calm - N/A   Clear
4:57 AM 55.0 °F 54.0 °F 96% 30.19 in 8.0 mi SSW 3.5 mph - N/A   Clear
5:57 AM 54.0 °F 53.1 °F 97% 30.19 in 3.0 mi Calm Calm - N/A   Clear
6:57 AM 55.0 °F 53.1 °F 93% 30.20 in 3.0 mi SW 3.5 mph - N/A   Clear
7:57 AM - - N/A% 30.21 in 10.0 mi SW 3.5 mph - N/A   Mostly Cloudy
9:57 AM 64.9 °F 55.0 °F 70% 30.22 in 10.0 mi West 4.6 mph - N/A   Mostly Cloudy
10:57 AM 69.1 °F 53.1 °F 57% 30.20 in 10.0 mi West 5.8 mph - N/A   Mostly Cloudy
11:57 AM 72.0 °F 51.1 °F 48% 30.16 in 10.0 mi WSW 10.4 mph 16.1 mph N/A   Scattered Clouds
12:57 PM 71.1 °F 52.0 °F 51% 30.13 in 10.0 mi WSW 5.8 mph - N/A   Mostly Cloudy
1:57 PM 73.0 °F 52.0 °F 48% 30.12 in 10.0 mi West 6.9 mph 18.4 mph 0.01 in   Mostly Cloudy
2:57 PM 71.1 °F 52.0 °F 51% 30.11 in 10.0 mi WSW 4.6 mph - N/A   Mostly Cloudy
3:57 PM 70.0 °F 52.0 °F 53% 30.12 in 9.0 mi Variable 6.9 mph - N/A   Mostly Cloudy
4:57 PM 64.0 °F 54.0 °F 70% 30.12 in 10.0 mi Calm Calm - N/A   Clear
5:57 PM 61.0 °F 55.0 °F 81% 30.14 in 10.0 mi North 3.5 mph - N/A   Partly Cloudy
6:57 PM 61.0 °F 55.0 °F 81% 30.15 in 10.0 mi North 5.8 mph - N/A   Partly Cloudy
7:38 PM 62.6 °F 55.4 °F 77% 30.17 in 10.0 mi ENE 8.1 mph - N/A   Overcast
7:57 PM 59.0 °F 52.0 °F 78% 30.19 in 10.0 mi NE 8.1 mph 17.3 mph N/A   Overcast
8:57 PM 57.0 °F 48.9 °F 74% 30.20 in 10.0 mi NNE 6.9 mph - N/A   Overcast
9:57 PM 55.9 °F 45.0 °F 67% 30.20 in 9.0 mi NE 10.4 mph - N/A   Overcast
10:35 PM 53.6 °F 48.2 °F 82% 30.20 in 10.0 mi NNE 6.9 mph - 0.00 in   Overcast
10:57 PM 53.1 °F 48.0 °F 83% 30.22 in 10.0 mi NE 8.1 mph - 0.00 in   Overcast
11:57 PM 54.0 °F 43.0 °F 66% 30.22 in 10.0 mi NNE 8.1 mph - N/A   Overcast